Air Resources Laboratory banner image
Air Resources Laboratory web site National Oceanic and Atmospheric Administration (NOAA)

ga roundup


Office: FFC

ASUS42 KFFC 110603
RWRGA
WEATHER ROUNDUP FOR GEORGIA
NATIONAL WEATHER SERVICE PEACHTREE CITY GA
200 AM EDT THU AUG 11 2022

NOTE: "FAIR" INDICATES FEW OR NO CLOUDS BELOW 12,000 FEET WITH NO
SIGNIFICANT WEATHER AND/OR OBSTRUCTIONS TO VISIBILITY.

* = USE WITH CAUTION. THE STATIONS MARKED WITH AN ASTERISK MAY NOT
REPORT WEATHER SUCH AS PRECIPITATION, FOG, OR THUNDER AND ARE NOT
QUALITY CONTROLLED BY NWS.

THE REMARK "TC" DENOTES TEMPERATURE READING IN DEGREES CELSIUS.

GAZ001>058-110700-
NORTH GEORGIA

CITY           SKY/WX    TMP DP  RH WIND       PRES   REMARKS
ATLANTA        MOCLDY    72  70  93 S5        30.16F
6HR MIN TEMP:  72; 6HR MAX TEMP:  82; 6HR PCP:  0.77;

ATHENS         MOCLDY    70  67  90 CALM      30.16R
6HR MIN TEMP:  70; 6HR MAX TEMP:  80;

CHAMBLEE       MOCLDY    71  71 100 CALM      30.16S
6HR MIN TEMP:  70; 6HR MAX TEMP:  79; 6HR PCP:  0.43;

PEACHTREE CITY MOCLDY    72  68  87 CALM      30.17S
6HR MIN TEMP:  71; 6HR MAX TEMP:  81;

ROME           MOCLDY    72  69  90 N5        30.12F
6HR MIN TEMP:  72; 6HR MAX TEMP:  82; 6HR PCP:  0.71;

WEST ATLANTA   MOCLDY    73  70  90 S5        30.15F
6HR MIN TEMP:  73; 6HR MAX TEMP:  82;

GAINESVILLE    LGT RAIN  71  67  87 NW6       30.18S
6HR MIN TEMP:  70; 6HR MAX TEMP:  81; 6HR PCP:  0.73;

CARTERSVILLE   MOCLDY    72  70  94 CALM      30.14F


CITY           SKY/WX    TMP DP  RH WIND       PRES   REMARKS
LAWRENCEVILLE* MOCLDY    71  70  96 SW5       30.16F
MARIETTA       MOCLDY    73  70  89 CALM      30.14F
KENNESAW*      MOCLDY    72  70  94 E5        30.16F
CANTON*        MOCLDY    70  69  96 CALM      30.17F
BLAIRSVILLE*   DRIZZLE   69  69  99 CALM      30.20F FOG
$$

GAZ059>098-102>109-110700-
CENTRAL GEORGIA

CITY           SKY/WX    TMP DP  RH WIND       PRES   REMARKS
AUGUSTA-BUSH   MOCLDY    69  68  96 S5        30.14S
6HR MIN TEMP:  69; 6HR MAX TEMP:  84; 6HR PCP:  0.27;

AUGUSTA-DANIEL MOCLDY    71  68  90 S5        30.15S
6HR MIN TEMP:  71; 6HR MAX TEMP:  85; 6HR PCP:  0.10;

COLUMBUS       MOCLDY    73  71  93 CALM      30.14S
6HR MIN TEMP:  73; 6HR MAX TEMP:  76;

MACON          MOCLDY    73  71  93 CALM      30.15S
6HR MIN TEMP:  72; 6HR MAX TEMP:  73;



CITY           SKY/WX    TMP DP  RH WIND       PRES   REMARKS
LAGRANGE*      MOCLDY   N/A N/A N/A CALM      30.15S
SYLVANIA*      MOCLDY    74  72  93 CALM      30.16F
MILLEDGEVILLE* LGT RAIN  73  73 100 CALM      30.17S
$$

GAZ099>101-110>166-110700-
SOUTH GEORGIA

CITY           SKY/WX    TMP DP  RH WIND       PRES   REMARKS
SAVANNAH       CLOUDY    73  69  87 CALM      30.15S
6HR MIN TEMP:  71; 6HR MAX TEMP:  85; 6HR PCP: TRACE;

VALDOSTA       MOCLDY    75  71  87 CALM      30.15S
6HR MIN TEMP:  74; 6HR MAX TEMP:  78;

ALMA           MOCLDY    73  72  96 CALM      30.15F
6HR MIN TEMP:  73; 6HR MAX TEMP:  74;

ST SIMONS      MOCLDY    85  75  72 VRB6      30.13F HX  93
6HR MIN TEMP:  82; 6HR MAX TEMP:  85;

FT STEWART     CLOUDY    72  71  99 CALM      30.13S
ALBANY         PTCLDY    71  70  96 CALM      30.15S
MOODY AFB      MOCLDY    72  69  92 CALM      30.14S
BRUNSWICK      MOCLDY    76  75  97 CALM      30.14F


CITY           SKY/WX    TMP DP  RH WIND       PRES   REMARKS
BAINBRIDGE*    PTCLDY    72  71  98 E3        30.14S
MOULTRIE*      PTCLDY    72  72 100 CALM      30.16S
VIDALIA*       MOCLDY    73  72  94 CALM      30.16S
WAYCROSS*      MOCLDY    74  73  95 CALM      30.15F
DOUGLAS*       MOCLDY    72  70  92 CALM      30.17F
$$


ASUS42 KFFC 110610
RWRGA
WEATHER ROUNDUP FOR GEORGIA
NATIONAL WEATHER SERVICE PEACHTREE CITY GA
200 AM EDT THU AUG 11 2022

NOTE: "FAIR" INDICATES FEW OR NO CLOUDS BELOW 12,000 FEET WITH NO
SIGNIFICANT WEATHER AND/OR OBSTRUCTIONS TO VISIBILITY.

* = USE WITH CAUTION. THE STATIONS MARKED WITH AN ASTERISK MAY NOT
REPORT WEATHER SUCH AS PRECIPITATION, FOG, OR THUNDER AND ARE NOT
QUALITY CONTROLLED BY NWS.

THE REMARK "TC" DENOTES TEMPERATURE READING IN DEGREES CELSIUS.

GAZ001>058-110700-
NORTH GEORGIA

CITY           SKY/WX    TMP DP  RH WIND       PRES   REMARKS
ATLANTA        MOCLDY    72  70  93 S5        30.16F
6HR MIN TEMP:  72; 6HR MAX TEMP:  82; 6HR PCP:  0.77;

ATHENS         MOCLDY    70  67  90 CALM      30.16R
6HR MIN TEMP:  70; 6HR MAX TEMP:  80;

CHAMBLEE       MOCLDY    71  71 100 CALM      30.16S
6HR MIN TEMP:  70; 6HR MAX TEMP:  79; 6HR PCP:  0.43;

PEACHTREE CITY MOCLDY    72  68  87 CALM      30.17S
6HR MIN TEMP:  71; 6HR MAX TEMP:  81;

ROME           MOCLDY    72  69  90 N5        30.12F
6HR MIN TEMP:  72; 6HR MAX TEMP:  82; 6HR PCP:  0.71;

WEST ATLANTA   MOCLDY    73  70  90 S5        30.15F
6HR MIN TEMP:  73; 6HR MAX TEMP:  82;

GAINESVILLE    LGT RAIN  71  67  87 NW6       30.18S
6HR MIN TEMP:  70; 6HR MAX TEMP:  81; 6HR PCP:  0.73;

CARTERSVILLE   MOCLDY    72  70  94 CALM      30.14F


CITY           SKY/WX    TMP DP  RH WIND       PRES   REMARKS
LAWRENCEVILLE* MOCLDY    71  70  96 SW5       30.16F
MARIETTA       MOCLDY    73  70  89 CALM      30.14F
KENNESAW*      MOCLDY    72  70  94 E5        30.16F
CANTON*        MOCLDY    70  69  96 CALM      30.17F
BLAIRSVILLE*   DRIZZLE   69  69  99 CALM      30.20F FOG
$$

GAZ059>098-102>109-110700-
CENTRAL GEORGIA

CITY           SKY/WX    TMP DP  RH WIND       PRES   REMARKS
AUGUSTA-BUSH   MOCLDY    69  68  96 S5        30.14S
6HR MIN TEMP:  69; 6HR MAX TEMP:  84; 6HR PCP:  0.27;

AUGUSTA-DANIEL MOCLDY    71  68  90 S5        30.15S
6HR MIN TEMP:  71; 6HR MAX TEMP:  85; 6HR PCP:  0.10;

COLUMBUS       MOCLDY    73  71  93 CALM      30.14S
6HR MIN TEMP:  73; 6HR MAX TEMP:  76;

MACON          CLOUDY    73  71  93 CALM      30.15S
6HR MIN TEMP:  72; 6HR MAX TEMP:  73;



CITY           SKY/WX    TMP DP  RH WIND       PRES   REMARKS
LAGRANGE*      MOCLDY   N/A N/A N/A CALM      30.15S
SYLVANIA*      MOCLDY    74  72  93 CALM      30.16F
MILLEDGEVILLE* DRIZZLE   73  73 100 CALM      30.17S
$$

GAZ099>101-110>166-110700-
SOUTH GEORGIA

CITY           SKY/WX    TMP DP  RH WIND       PRES   REMARKS
SAVANNAH       MOCLDY    73  69  87 CALM      30.15S
6HR MIN TEMP:  71; 6HR MAX TEMP:  85; 6HR PCP: TRACE;

VALDOSTA       PTCLDY    75  71  87 CALM      30.15S
6HR MIN TEMP:  74; 6HR MAX TEMP:  78;

ALMA           MOCLDY    73  72  96 CALM      30.15F
6HR MIN TEMP:  73; 6HR MAX TEMP:  74;

ST SIMONS      MOCLDY    85  75  72 VRB6      30.13F HX  93
6HR MIN TEMP:  82; 6HR MAX TEMP:  85;

FT STEWART     MOCLDY    72  71  99 CALM      30.13S
ALBANY         MOCLDY    71  70  96 CALM      30.15S
MOODY AFB      MOCLDY    72  69  92 CALM      30.14S
BRUNSWICK      MOCLDY    76  75  97 CALM      30.14F


CITY           SKY/WX    TMP DP  RH WIND       PRES   REMARKS
BAINBRIDGE*    PTCLDY    72  71  98 E3        30.14S
MOULTRIE*      MOCLDY    72  72 100 CALM      30.16S
VIDALIA*       MOCLDY    73  72  94 CALM      30.16S
WAYCROSS*      MOCLDY    74  73  95 CALM      30.15F
DOUGLAS*       MOCLDY    72  70  92 CALM      30.17F
$$




Office: CHS ASUS42 KCHS 110610 RWRCHS Regional Weather Roundup National Weather Service Charleston SC 200 AM EDT THU AUG 11 2022 NOTE: "fair" indicates few or no clouds below 12,000 feet with no significant weather and/or obstructions to visibility. Not all stations are quality controlled. Use data with caution, especially dewpoint observations. SCZ027-030-031-034>040-042>050-110700- ...Southeast South Carolina... CITY SKY/WX TMP DP RH WIND PRES REMARKS N Charleston CLOUDY 77 69 76 W6 30.13F 6HR MIN TEMP: 77; 6HR MAX TEMP: 83; Waterfront Prk N/A 80 71 74 VRB2 29.99S Mount Pleasant FAIR 81 75 83 CALM 30.13S Johns Island CLOUDY 79 72 78 CALM 30.14F Pinopolis N/A 79 72 78 CALM 30.06F Moncks Corner FAIR 72 50 46 CALM 30.13F Summerville CLOUDY 75 72 88 CALM 30.12F Beaufort MCAS CLOUDY 76 72 87 CALM 30.15S 6HR MIN TEMP: 75; 6HR MAX TEMP: 85; 6HR PCP: TRACE; Beaufort Arpt N/A 75 68 78 CALM 30.14S Hilton Head Is CLOUDY 77 68 73 CALM 30.15F Walterboro CLOUDY 73 70 88 SW3 30.15F Allendale FAIR 73 73 100 CALM 30.14F ...Southern Midlands and Pee Dee... CITY SKY/WX TMP DP RH WIND PRES REMARKS Georgetown FAIR 77 66 69 W5 30.13F Kingstree FAIR 70 68 94 S3 30.10F Orangeburg CLOUDY 72 71 97 S9 30.14R 6HR MIN TEMP: 72; 6HR MAX TEMP: 87; 6HR PCP: 0.19; Barnwell MOCLDY 72 70 94 CALM 30.15S Aiken FAIR 71 69 95 SW7 30.16S Manning FAIR 72 68 88 CALM 30.10F Columbia MOCLDY 72 70 93 SW7 30.11S 6HR MIN TEMP: 72; 6HR MAX TEMP: 86; 6HR PCP: 0.07; Sumter NOT AVBL Florence CLOUDY 72 70 93 S9 30.08S 6HR MIN TEMP: 72; 6HR MAX TEMP: 87; 6HR PCP: 0.35; Myrtle Beach PTCLDY 80 71 74 W7 30.12F N Myrtle Beach CLEAR 79 73 82 W7 30.10F 6HR MIN TEMP: 79; 6HR MAX TEMP: 83; $$ GAZ063-065-086>088-099>101-113>116-118-119-134>141-150-110700- ...Southeast Georgia... CITY SKY/WX TMP DP RH WIND PRES REMARKS Savannah Arpt MOCLDY 73 69 87 CALM 30.15S 6HR MIN TEMP: 71; 6HR MAX TEMP: 85; 6HR PCP: TRACE; Hunter AAF NOT AVBL Fort Stewart MOCLDY 72 71 99 CALM 30.13S 6HR MIN TEMP: 70; 6HR MAX TEMP: 72; 6HR PCP: TRACE; Statesboro MOCLDY 73 68 84 CALM 30.15F Sylvania MOCLDY 74 72 93 CALM 30.16F Claxton FAIR 74 72 93 CALM 30.16S Millen FAIR 72 71 96 CALM 30.15F Metter FAIR 72 N/A N/A SE5 30.16R Reidsville NOT AVBL ...CSRA, Central and far Southeast Georgia... CITY SKY/WX TMP DP RH WIND PRES REMARKS Thomson MOCLDY 72 68 88 CALM 30.15S Augusta-Bush MOCLDY 69 68 96 S5 30.14S 6HR MIN TEMP: 69; 6HR MAX TEMP: 84; 6HR PCP: 0.27; Augusta-Daniel MOCLDY 71 68 90 S5 30.15S Swainsboro FAIR 72 72 100 SE3 30.16S Vidalia PTCLDY 73 72 94 CALM 30.16S Eastman FAIR 72 70 94 CALM 30.16S Hazlehurst NOT AVBL Alma MOCLDY 73 72 96 CALM 30.15F 6HR MIN TEMP: 73; 6HR MAX TEMP: 74; Waycross MOCLDY 74 73 95 CALM 30.15F Jesup FAIR 75 72 88 CALM 30.17F Baxley FAIR N/A N/A N/A CALM 30.15F Brunswick MOCLDY 76 75 97 CALM 30.14F Saint Simons MOCLDY 85 75 72 VRB6 30.13F HX 93 6HR MIN TEMP: 82; 6HR MAX TEMP: 85; $$ SCZ027-028-034-036>038-045-046-048>050-GAZ119-141-110700- ...Lake and Supplemental Coastal Observations... STATION/POSITION TIME TEMP WIND PRES WAVE SWELL AIR SEA DIR/SP/G HT/PER HT/PER/DIR (UTC) (F) (DEG/KT/KT) (MB) (FT/S) (FT/S/D) Winyah Bay 0445 81 270/ 5 1021.0 Lake Murray 0520 78 210/ 5/ 6 N/A Chrlstn Harbor 0524 81 86 290/ 4/ 8 1019.3 ACE Basin NERRS NOT AVBL Fort Pulaski 0524 78 87 CALM 1021.4 Sapelo Island 0500 80 10/ 5 1021.0 $$ ANZ835-935-AMZ111-154-330-350-352-354-370-450-454-472-110700- ...C-MAN and Buoy Observations... STATION/POSITION TIME TEMP WIND PRES WAVE SWELL AIR SEA DIR/SP/G HT/PER HT/PER/DIR (UTC) (F) (DEG/KT/KT) (MB) (FT/S) (FT/S/D) Buoy 41004 0550 84 85 250/ 16/ 19 1020.5F 3/ 8 2/120/ 8 Buoy 41008 0550 84 84 200/ 10/ 12 1020.2F 3/ 9 2/120/ 9 Folly Beach CMAN 0500 80 270/ 5/ 6 1021.1S Chas Pilot Buoy NOT AVBL Chas Pilot Wave NOT AVBL Capers Nearshore NOT AVBL Capers NS Wave NOT AVBL Fripp Nearshore NOT AVBL STATION/POSITION TIME TEMP WIND PRES WAVE SWELL AIR SEA DIR/SP/G HT/PER HT/PER/DIR (UTC) (F) (DEG/KT/KT) (MB) (FT/S) (FT/S/D) 5E St. Marys GA 0530 82 83 N/A 3/ 9 Frying Pan Buoy 0550 84 84 240/ 17/ 21 1019.6S 5/ 5 2/150/ 8 Buoy 41025 0550 83 10/ 6/ 10 1017.9F Cape Lookout NC 0500 83 240/ 15/ 19 1018.9R Buoy 41002 0550 83 85 260/ 6/ 8 N/A 3/ 8 3/110/ 8 Buoy 41010 0550 84 86 140/ 6/ 8 1021.4F 4/ 8 3/110/ 8 St Augustine FL 0600 81 81 170/ 9/ 10 1021.1F $$ ASUS42 KCHS 110612 RWRCHS Regional Weather Roundup National Weather Service Charleston SC 200 AM EDT THU AUG 11 2022 NOTE: "fair" indicates few or no clouds below 12,000 feet with no significant weather and/or obstructions to visibility. Not all stations are quality controlled. Use data with caution, especially dewpoint observations. SCZ027-030-031-034>040-042>050-110700- ...Southeast South Carolina... CITY SKY/WX TMP DP RH WIND PRES REMARKS N Charleston CLOUDY 77 69 76 W6 30.13F 6HR MIN TEMP: 77; 6HR MAX TEMP: 83; Waterfront Prk NOT AVBL Mount Pleasant FAIR 81 75 83 CALM 30.13S Johns Island CLOUDY 79 72 78 CALM 30.14F Pinopolis NOT AVBL Moncks Corner FAIR 72 50 46 CALM 30.13F Summerville CLOUDY 75 72 88 CALM 30.12F Beaufort MCAS CLOUDY 76 72 87 CALM 30.15S 6HR MIN TEMP: 75; 6HR MAX TEMP: 85; 6HR PCP: TRACE; Beaufort Arpt N/A 75 68 78 CALM 30.14S Hilton Head Is CLOUDY 77 68 73 CALM 30.15F Walterboro CLOUDY 73 70 88 SW3 30.15F Allendale FAIR 73 73 100 CALM 30.14F ...Southern Midlands and Pee Dee... CITY SKY/WX TMP DP RH WIND PRES REMARKS Georgetown FAIR 77 66 69 W5 30.13F Kingstree FAIR 70 68 94 S3 30.10F Orangeburg CLOUDY 72 71 97 S9 30.14R 6HR MIN TEMP: 72; 6HR MAX TEMP: 87; 6HR PCP: 0.19; Barnwell MOCLDY 72 70 94 CALM 30.15S Aiken FAIR 71 69 95 SW7 30.16S Manning FAIR 72 68 88 CALM 30.10F Columbia MOCLDY 72 70 93 SW7 30.11S 6HR MIN TEMP: 72; 6HR MAX TEMP: 86; 6HR PCP: 0.07; Sumter NOT AVBL Florence CLOUDY 72 70 93 S9 30.08S 6HR MIN TEMP: 72; 6HR MAX TEMP: 87; 6HR PCP: 0.35; Myrtle Beach PTCLDY 80 71 74 W7 30.12F N Myrtle Beach CLEAR 79 73 82 W7 30.10F 6HR MIN TEMP: 79; 6HR MAX TEMP: 83; $$ GAZ063-065-086>088-099>101-113>116-118-119-134>141-150-110700- ...Southeast Georgia... CITY SKY/WX TMP DP RH WIND PRES REMARKS Savannah Arpt MOCLDY 73 69 87 CALM 30.15S 6HR MIN TEMP: 71; 6HR MAX TEMP: 85; 6HR PCP: TRACE; Hunter AAF NOT AVBL Fort Stewart MOCLDY 72 71 99 CALM 30.13S 6HR MIN TEMP: 70; 6HR MAX TEMP: 72; 6HR PCP: TRACE; Statesboro MOCLDY 73 68 84 CALM 30.15F Sylvania MOCLDY 74 72 93 CALM 30.16F Claxton FAIR 74 72 93 CALM 30.16S Millen FAIR 72 71 96 CALM 30.15F Metter FAIR 72 N/A N/A SE5 30.16R Reidsville NOT AVBL ...CSRA, Central and far Southeast Georgia... CITY SKY/WX TMP DP RH WIND PRES REMARKS Thomson MOCLDY 72 68 88 CALM 30.15S Augusta-Bush MOCLDY 69 68 96 S5 30.14S 6HR MIN TEMP: 69; 6HR MAX TEMP: 84; 6HR PCP: 0.27; Augusta-Daniel MOCLDY 71 68 90 S5 30.15S Swainsboro FAIR 72 72 100 SE3 30.16S Vidalia PTCLDY 73 72 94 CALM 30.16S Eastman FAIR 72 70 94 CALM 30.16S Hazlehurst NOT AVBL Alma MOCLDY 73 72 96 CALM 30.15F 6HR MIN TEMP: 73; 6HR MAX TEMP: 74; Waycross MOCLDY 74 73 95 CALM 30.15F Jesup FAIR 75 72 88 CALM 30.17F Baxley FAIR N/A N/A N/A CALM 30.15F Brunswick MOCLDY 76 75 97 CALM 30.14F Saint Simons MOCLDY 85 75 72 VRB6 30.13F HX 93 6HR MIN TEMP: 82; 6HR MAX TEMP: 85; $$ SCZ027-028-034-036>038-045-046-048>050-GAZ119-141-110700- ...Lake and Supplemental Coastal Observations... STATION/POSITION TIME TEMP WIND PRES WAVE SWELL AIR SEA DIR/SP/G HT/PER HT/PER/DIR (UTC) (F) (DEG/KT/KT) (MB) (FT/S) (FT/S/D) Winyah Bay 0445 81 270/ 5 1021.0 Lake Murray 0520 78 210/ 5/ 6 N/A Chrlstn Harbor 0524 81 86 290/ 4/ 8 1019.3 ACE Basin NERRS NOT AVBL Fort Pulaski 0524 78 87 CALM 1021.4 Sapelo Island 0500 80 10/ 5 1021.0 $$ ANZ835-935-AMZ111-154-330-350-352-354-370-450-454-472-110700- ...C-MAN and Buoy Observations... STATION/POSITION TIME TEMP WIND PRES WAVE SWELL AIR SEA DIR/SP/G HT/PER HT/PER/DIR (UTC) (F) (DEG/KT/KT) (MB) (FT/S) (FT/S/D) Buoy 41004 0550 84 85 250/ 16/ 19 1020.5F 3/ 8 2/120/ 8 Buoy 41008 0550 84 84 200/ 10/ 12 1020.2F 3/ 9 2/120/ 9 Folly Beach CMAN 0500 80 270/ 5/ 6 1021.1S Chas Pilot Buoy NOT AVBL Chas Pilot Wave NOT AVBL Capers Nearshore NOT AVBL Capers NS Wave NOT AVBL Fripp Nearshore NOT AVBL STATION/POSITION TIME TEMP WIND PRES WAVE SWELL AIR SEA DIR/SP/G HT/PER HT/PER/DIR (UTC) (F) (DEG/KT/KT) (MB) (FT/S) (FT/S/D) 5E St. Marys GA 0530 82 83 N/A 3/ 9 Frying Pan Buoy 0550 84 84 240/ 17/ 21 1019.6S 5/ 5 2/150/ 8 Buoy 41025 0550 83 10/ 6/ 10 1017.9F Cape Lookout NC 0500 83 240/ 15/ 19 1018.9R Buoy 41002 0550 83 85 260/ 6/ 8 N/A 3/ 8 3/110/ 8 Buoy 41010 0550 84 86 140/ 6/ 8 1021.4F 4/ 8 3/110/ 8 St Augustine FL 0600 81 81 170/ 9/ 10 1021.1F $$